SCP
0 0 0 0 0 0 0 0 0 0 0 0 0 0 0 0 0 0 0 0 0 0 0 0 0 0 0 0 0 0 0 0 0 0 0 0 0 0 0 0 0 0 0
0 0 0 0 0 0 0 0 0 0 0 0 0 0 0 0 0 0 0 0 0 0 0 0 0 0 0 0 0 0 0 0 0 0 0 0 0 0 0 0 0 0 0
0 0 0 0 0 0 0 0 0 0 0 0 0 0 0 0 0 0 0 0 0 0 0 0 0 0 0 0 0 0 0 0 0 0 0 0 0 0 0 0 0 0 0
0 0 0 0 0 0 0 0 0 0 0 0 0 0 0 0 0 0 0 0 0 0 0 0 0 0 0 0 0 0 0 0 0 0 0 0 0 0 0 0 0 0 0
0 0 0 0 0 0 0 0 0 0 0 0 0 0 0 0 0 0 0 0 0 0 0 0 0 0 0 0 0 0 0 0 0 0 0 0 0 0 0 0 0 0 0
0 0 0 0 0 0 0 0 0 0 0 0 0 0 0 0 0 0 0 0 0 0 0 0 0 0 0 0 0 0 0 0 0 0 0 0 0 0 0 -0 -0 -0 -0
0 0 0 0 0 0 0 0 0 0 0 0 0 0 0 0 0 0 0 0 0 0 0 0 0 0 0 0 0 0 0 0 0 0 0 0 0 0 -0 -0 -0 -0 -0
0 0 0 0 0 0 0 0 0 0 0 0 0 0 0 0 0 0 0 0 0 0 0 0 0 0 0 0 0 0 0 0 0 0 0 0 0 -0 -0 -0 -0 -0 -0
0 0 0 0 0 0 0 0 0 0 0 0 0 0 0 0 0 0 0 0 0 0 0 0 0 0 0 0 0 0 0 0 0 0 0 0 0 0 0 -0 -0 -0 -0
0 0 0 0 0 0 0 0 0 0 0 0 0 0 0 0 0 0 0 0 0 0 0 0 0 0 0 0 -0 -0 0 0 -0 -0 -0 -0 -0 0 0 0 0 0 0
0 0 0 0 0 0 0 0 0 0 0 0 0 0 0 0 0 0 0 0 0 0 0 0 0 0 0 -0 -0 -0 -0 -0 -0 -0 -0 -0 -0 0 0 0 0 0 0
0 0 0 0 0 0 0 0 0 0 0 0 0 0 0 0 0 0 0 0 0 0 0 0 0 0 -0 -0 -0 -0 -0 -0 -0 -0 -0 -0 0 0 0 0 0 0 0
0 0 0 0 0 0 0 0 0 0 0 0 0 0 0 0 0 0 0 0 0 0 0 0 0 -0 -0 -0 -0 -0 -0 -0 -0 -0 -0 0 0 0 0 0 0 0 0
0 0 0 0 0 0 0 0 0 0 0 0 0 0 0 0 0 0 0 0 0 0 0 -0 -0 -0 -0 -0 -0 0 0 -0 -0 0 0 0 0 0 0 0 0 0 0
0 0 0 0 0 0 0 0 0 0 0 0 0 0 0 0 0 0 0 0 0 0 -0 -0 -0 -0 -0 -0 0 0 0 0 0 0 0 0 0 0 0 0 0 0 0
0 0 0 0 0 0 0 0 0 0 0 0 0 0 0 0 0 0 -0 -0 -0 0 -0 -0 -0 -0 0 0 0 0 0 0 0 0 0 0 0 0 0 0 0 0 0
0 0 0 0 0 0 0 0 0 0 0 0 0 0 0 0 0 0 0 0 0 0 0 0 0 0 0 0 0 0 0 0 0 0 0 0 0 0 0 0 0 0 0
0 0 0 0 0 0 0 0 0 0 0 0 0 0 0 0 0 0 0 0 0 0 0 0 0 0 0 0 0 0 0 0 0 0 0 0 0 0 0 0 0 0 0
0 0 0 0 0 0 0 0 0 0 0 0 0 0 0 0 0 0 0 0 0 0 0 0 0 0 0 0 0 0 0 0 0 0 0 0 0 0 0 0 0 0 0
0 0 0 0 0 0 0 0 0 0 0 0 0 0 0 -0 -0 0 0 0 0 0 0 0 0 0 0 0 0 0 0 0 0 0 0 0 0 0 0 0 0 0 0
0 0 0 0 0 0 0 0 0 0 0 0 0 0 -0 -0 -0 0 0 0 0 0 0 0 0 0 0 0 0 0 0 0 0 0 0 0 0 0 0 0 0 0 0
0 0 0 0 0 0 0 0 0 0 0 0 0 -0 -0 -0 0 0 0 0 0 0 0 0 0 0 0 0 0 0 0 0 0 0 0 0 0 0 0 0 0 0 0
0 0 0 0 0 0 0 0 0 0 0 0 -0 -0 -0 -0 0 0 0 0 0 0 0 0 0 0 0 0 0 0 0 0 0 0 0 0 0 0 0 0 0 0 0
0 0 0 0 0 0 0 0 0 0 0 -0 -0 -0 -0 0 0 0 0 0 0 0 0 0 0 0 0 0 0 0 0 0 0 0 0 0 0 0 0 0 0 0 0
0 0 0 0 0 0 0 0 0 0 0 -0 -0 -0 -0 0 0 0 0 0 0 0 0 0 0 0 0 0 0 0 0 0 0 0 0 0 0 0 0 0 0 0 0
0 0 0 0 0 0 0 0 0 0 0 -0 -0 -0 -0 -0 0 0 0 0 0 0 0 0 0 0 0 0 0 0 0 0 0 0 0 0 0 0 0 0 0 0 0
Wind_Speed
6 5 6 5 5 4 3 3 3 3 2 1 1 2 3 3 3 4 5 5 6 5 6 6 6 6 5 5 5 5 6 7 12 11 9 9 11 11 11 10 10 10 10
6 6 6 5 4 3 3 4 3 1 1 2 2 3 4 4 3 4 5 5 5 6 6 7 7 7 6 5 5 6 6 7 10 13 10 9 11 11 11 11 11 11 9
7 7 5 4 3 4 4 3 2 1 2 3 4 4 4 4 4 4 5 6 7 8 8 8 8 8 8 6 6 7 7 8 7 9 10 9 9 10 10 11 12 9 11
7 6 6 5 4 3 2 2 2 2 2 3 4 4 5 6 8 9 9 9 9 9 9 9 9 8 8 7 7 7 7 8 7 8 9 9 9 10 9 9 9 7 8
8 7 6 4 2 2 2 2 2 3 4 4 5 6 6 7 8 9 9 10 9 10 10 10 10 13 14 10 9 8 8 8 8 8 9 9 9 8 8 7 9 8 8
8 6 4 3 2 3 3 2 3 4 5 6 6 7 7 6 6 9 9 9 10 10 10 10 11 12 12 13 16 16 14 12 10 9 9 10 11 10 8 8 8 8 6
6 4 2 1 1 2 3 4 5 5 5 5 5 5 5 5 4 5 10 10 10 9 9 9 10 11 12 9 12 16 15 16 17 12 11 11 11 10 10 10 8 8 7
3 2 1 1 2 3 5 6 6 5 4 4 5 5 4 2 1 5 11 10 9 9 9 10 10 10 11 10 11 12 11 11 11 8 7 9 9 9 9 9 9 7 6
3 3 3 4 5 6 6 5 5 4 4 4 5 5 5 1 2 5 8 10 8 10 11 11 11 11 12 13 12 11 11 9 9 9 9 10 12 12 9 6 5 4 4
4 4 4 4 4 6 5 5 5 4 4 5 5 5 5 4 3 5 8 8 9 10 10 10 11 10 13 13 10 8 8 7 6 5 5 6 6 6 7 5 4 3 3
4 5 4 3 3 5 4 4 4 5 4 4 5 4 4 5 6 7 10 8 9 10 9 8 7 11 12 12 9 6 6 6 4 4 4 4 4 4 5 5 5 4 3
5 5 4 4 5 5 4 3 4 5 4 4 5 5 5 5 7 10 13 13 12 10 8 7 7 11 11 10 7 7 8 5 3 2 3 3 3 3 3 4 5 5 5
5 4 4 5 5 5 5 5 5 4 5 5 6 6 6 6 8 12 14 15 14 9 7 10 11 10 9 6 7 8 6 4 3 3 3 3 3 3 3 2 3 3 5
3 2 3 4 5 5 4 5 5 6 6 6 6 6 6 7 8 9 9 9 11 9 7 8 9 7 6 5 5 4 3 4 4 3 3 2 2 2 3 3 3 3 3
3 3 4 5 4 4 5 5 6 6 5 5 6 6 6 7 10 13 9 8 8 8 8 5 4 5 5 4 4 4 4 4 4 3 3 3 2 2 3 3 4 4 5
4 4 4 4 4 4 4 4 4 4 3 1 3 5 5 7 12 14 15 14 13 13 7 5 5 5 5 5 5 5 5 5 5 4 3 3 3 3 3 3 4 5 6
6 5 4 4 4 4 3 3 2 3 4 2 2 7 8 10 12 15 16 13 11 12 7 6 6 6 6 5 5 5 5 5 5 5 5 4 3 4 4 4 5 6 7
5 4 4 4 4 4 4 4 4 4 3 1 1 6 10 10 11 14 15 11 9 9 7 7 7 7 6 6 5 5 5 5 5 5 5 4 3 4 5 5 5 6 7
6 5 3 3 4 4 4 4 5 5 5 5 5 6 9 10 9 12 11 8 7 7 7 7 7 7 6 6 6 5 6 5 6 6 5 5 3 3 4 5 6 8 7
3 2 3 4 5 5 5 5 5 5 5 5 6 7 7 7 7 8 8 7 7 7 7 7 7 7 7 6 6 6 6 6 7 6 5 4 3 3 4 5 5 5 5
3 3 1 4 6 6 5 5 5 5 5 5 5 6 8 6 6 7 7 7 7 7 7 7 7 7 7 6 6 7 7 6 7 7 6 4 4 3 3 3 4 4 5
4 4 5 6 6 5 5 5 5 5 6 6 4 5 7 6 6 6 6 6 6 6 6 6 6 6 6 6 6 6 7 7 8 8 7 5 4 4 4 4 4 4 5
4 6 6 6 6 5 5 6 6 6 6 6 6 5 5 5 5 6 6 6 6 6 6 6 6 6 6 5 5 5 6 7 8 9 8 5 4 4 4 5 6 6 6
7 7 7 6 6 6 7 6 6 6 6 6 6 5 5 4 5 5 5 5 5 5 5 5 6 8 10 7 6 6 6 7 8 8 10 6 5 4 4 5 5 6 6
8 7 8 7 7 7 7 7 6 6 6 6 6 6 5 5 5 5 5 5 6 6 7 6 6 7 10 11 10 9 9 10 9 8 8 5 5 5 5 6 5 5 6
8 8 7 7 7 7 6 6 6 7 7 6 6 6 6 6 6 6 6 6 6 6 7 6 8 10 12 10 11 11 10 10 11 11 7 4 4 5 5 4 6 5 6
Wind_Direction
124 111 106 102 101 102 99 107 96 74 51 319 294 282 271 265 266 265 269 278 279 281 283 284 282 280 275 275 275 275 277 282 288 292 292 294 293 291 290 286 285 278 275
109 98 91 86 87 93 87 76 71 74 312 303 304 298 298 302 302 293 296 307 313 312 308 303 296 293 288 284 277 276 277 274 278 287 289 290 288 289 286 283 286 284 279
103 98 94 93 81 63 64 59 25 2 329 323 322 320 314 312 321 340 349 347 337 326 318 311 306 301 294 289 284 281 278 278 274 282 287 287 286 286 290 291 289 287 287
89 88 78 66 58 47 39 25 356 341 322 319 318 327 342 13 31 23 10 353 341 329 319 311 303 297 294 292 289 281 281 280 279 281 284 286 287 288 289 291 293 292 290
78 75 67 55 36 11 2 351 346 340 342 2 6 10 22 53 41 25 359 346 333 318 310 304 301 301 297 289 286 284 284 282 281 281 283 287 287 291 291 292 293 294 286
76 73 63 37 13 343 333 358 11 20 28 27 25 24 30 50 56 27 359 335 317 307 304 303 301 296 299 298 294 291 285 282 280 280 283 285 288 290 292 292 291 292 287
82 80 71 18 347 356 6 39 41 36 32 24 23 30 47 80 55 356 339 320 306 302 303 304 306 307 309 304 303 301 293 286 279 277 279 283 288 291 292 291 286 284 278
100 98 62 20 33 43 48 45 41 30 22 10 28 26 24 68 360 322 325 317 309 308 308 307 308 309 312 316 310 300 292 287 284 282 276 282 286 289 289 287 285 282 273
95 76 54 45 49 55 51 39 35 20 19 15 32 12 1 24 244 310 328 322 316 318 316 314 313 313 317 317 309 299 295 293 289 281 276 283 289 295 299 298 292 287 286
92 80 74 67 65 65 53 35 22 16 23 16 15 0 350 354 352 340 335 326 323 320 314 313 316 323 324 322 315 306 303 304 311 314 307 305 306 317 328 324 323 315 309
92 86 72 58 90 85 67 48 25 13 22 18 7 356 359 359 3 2 339 332 328 318 314 318 324 333 332 331 330 331 327 320 321 321 322 331 342 357 7 12 10 1 349
90 87 74 46 45 67 63 52 38 11 17 22 6 0 2 359 5 352 338 329 324 318 317 323 327 331 332 335 341 343 342 337 325 332 352 360 1 6 9 19 23 26 25
95 92 90 86 73 49 43 43 36 25 21 17 7 1 358 354 356 351 338 330 329 328 323 326 327 329 332 333 343 343 341 346 353 11 17 12 2 355 356 8 14 24 34
95 105 106 95 90 74 50 43 43 28 20 14 7 359 356 352 355 347 337 333 336 336 332 326 325 325 329 326 333 344 355 7 7 15 14 360 354 4 14 19 20 9 27
67 67 83 81 75 78 70 47 48 62 42 17 6 353 355 353 342 332 337 340 340 336 328 334 350 351 357 1 3 4 10 11 12 6 4 358 6 26 35 34 33 27 32
42 47 67 72 61 69 93 109 80 90 131 88 351 345 355 353 339 344 348 349 351 349 356 360 1 360 3 5 6 12 18 12 2 359 1 4 15 32 43 47 48 45 42
51 37 42 53 54 50 49 56 95 154 202 217 339 358 0 354 354 355 353 352 6 7 13 6 3 1 0 4 9 12 13 3 357 360 2 10 27 42 53 56 58 57 54
57 62 40 54 50 48 46 44 45 52 56 54 28 17 9 6 6 3 357 2 11 13 8 4 2 0 0 5 9 8 4 1 359 358 359 6 32 62 65 64 66 70 68
41 42 29 45 59 58 55 55 50 47 44 35 27 21 13 7 11 11 8 13 6 4 2 2 0 358 0 3 5 5 3 360 357 356 360 5 24 65 81 83 83 83 80
107 52 3 50 56 55 56 54 52 50 50 44 33 18 5 10 12 7 8 6 4 1 359 358 358 359 359 0 1 6 6 2 357 356 357 1 18 60 80 90 95 94 93
91 114 142 63 59 52 53 56 58 50 53 56 51 35 11 16 11 4 3 1 360 357 354 353 355 355 357 358 1 6 8 1 356 353 356 0 17 42 69 83 89 91 98
25 60 58 62 69 58 59 61 62 63 60 55 49 46 32 27 15 6 1 357 356 355 351 350 352 352 352 356 1 6 6 1 355 351 351 359 16 33 51 64 70 78 86
36 54 62 60 70 83 68 63 61 61 61 59 50 43 36 27 15 6 0 355 352 353 354 354 354 355 352 352 2 15 10 355 342 342 347 355 13 30 45 58 64 65 67
44 49 56 55 59 62 61 59 58 60 62 62 59 53 44 32 17 7 1 355 355 357 358 357 356 353 359 7 8 15 8 347 338 339 344 356 24 38 47 56 66 75 74
47 49 55 54 50 57 61 60 56 57 58 59 61 58 48 38 25 16 7 2 3 4 6 4 360 358 2 15 16 7 350 344 347 344 340 355 24 39 48 57 59 64 71
47 49 56 61 54 51 55 59 60 57 55 54 55 56 54 47 34 23 15 10 9 8 9 5 10 19 11 7 6 359 351 348 348 345 342 0 34 42 45 51 60 62 69